User: anonymous   Login
Location: *
(57.8420°S, 159.8600°W)
Time: 00:12:08
(UTC+00:00)
Language:

S3M - Orbit

View from above orbital plane
View from above orbital plane
View from above satellite
View from above satellite

Ground track
Ground track

The orbit data is extracted from the following two-line orbital elements,

1 12508U 81053B   21208.43370488  .00000033  00000-0  17992-4 0  9991
2 12508  82.9587 111.0619 0036853 330.0258  29.8788 13.76375023 21745
Epoch (UTC): 27 July 2021 10:24:32
Eccentricity: 0.0036853
inclination: 82.9587°
perigee height: 949 km
apogee height: 1004 km
right ascension of ascending node: 111.0619°
argument of perigee: 330.0258°
revolutions per day: 13.76375023
mean anomaly at epoch: 29.8788°
orbit number at epoch: 2174

The dashed part of the orbit path shows where the satellite is in the earth's shadow,  

DLR